Location: Unspecified
(0.0000°N, 0.0000°E)
Time: 23:59:29
(UTC+02:00)

ATLAS V CENTAUR R/B - Visible Passes

Search period start: 21 August 2014 00:00
Search period end: 31 August 2014 00:00
Orbit: 224 x 30516 km, 17.9° (Epoch: 21 August)

Date Brightness Start Highest point End Pass type
(mag) Time Alt. Az. Time Alt. Az. Time Alt. Az.
21 Aug 7.2 03:15:10 44° NNE 03:15:10 44° NNE 10:58:41 10° ESE visible
21 Aug 3.6 20:23:28 10° WSW 20:32:31 57° NNW 20:34:55 10° NE visible
22 Aug 7.5 05:51:22 22° WNW 06:22:36 79° NNE 13:58:50 10° ESE visible
24 Aug 7.8 02:10:46 25° ENE 02:10:46 25° ENE 09:31:13 10° ESE visible
25 Aug 7.1 04:45:49 46° NW 04:57:59 69° NNE 12:45:34 10° ESE visible
26 Aug 7.6 07:23:55 10° WNW 08:56:40 76° WSW 15:33:45 10° ESE visible
28 Aug 7.2 03:37:12 55° NNE 03:38:20 55° NNE 11:25:42 10° ESE visible
28 Aug 4.4 20:47:41 10° W 20:52:02 23° NW 20:53:54 10° NNE visible
29 Aug 7.7 06:10:40 20° WNW 06:56:08 89° NNE 14:18:11 10° ESE visible
